Regional Weather Roundup
Issued by NWS

Home | Current Version | Previous Version | Graphics & Text | Print | Product List | Glossary On
Versions: 1 2 3 4 5 6 7 8 9 10 11 12 13 14 15 16 17 18 19 20 21 22 23 24 25 26 27 28 29 30 31 32 33 34 35 36 37 38 39 40 41 42 43 44 45 46 47 48 49 50
000
ASUS43 KMKX 301600
RWRWI

WISCONSIN REGIONAL WEATHER ROUNDUP
NATIONAL WEATHER SERVICE MILWAUKEE/SULLIVAN WI
1100 AM CDT WED JUL 30 2014

NOTE: "FAIR" INDICATES FEW OR NO CLOUDS BELOW 12,000 FEET WITH NO
SIGNIFICANT WEATHER AND/OR OBSTRUCTIONS TO VISIBILITY.

WIZ001-002-006>008-014>016-023>028-301700-
NORTHWEST WISCONSIN

CITY           SKY/WX    TMP DP  RH WIND       PRES   REMARKS
SUPERIOR ARPT  FAIR      66  59  78 S6        30.05F
ASHLAND        FAIR      66  59  78 VRB6      30.06F
HAYWARD        FAIR      62  58  86 W5        30.09S
SIREN          FAIR      66  59  78 CALM      30.09S
RICE LAKE      FAIR      60  59  96 CALM      30.11S
LADYSMITH      CLOUDY    61  57  88 CALM      30.12S
EAU CLAIRE     FAIR      64  57  78 CALM      30.09S
MENOMONIE      FAIR      68  56  66 CALM      30.09S
NEW RICHMOND   FAIR      70  57  63 W3        30.10S
OSCEOLA        FAIR      69  58  68 CALM      30.12S
$$

WIZ003>005-009-010-017-018-301700-
NORTH CENTRAL WISCONSIN

CITY           SKY/WX    TMP DP  RH WIND       PRES   REMARKS
WOODRUFF       FAIR      67  60  78 NW7       30.08S
RHINELANDER    FAIR      65  52  62 W8        30.08S
EAGLE RIVER    FAIR      63  48  58 CALM      30.06F
LAND O LAKES   FAIR      66  47  51 NW3       30.07S
PHILLIPS       CLOUDY    60  56  87 CALM      30.09S
TOMAHAWK       CLOUDY    55  55  97 W3        30.10S
MEDFORD        FAIR      59  57  92 NW5       30.09S
MERRILL        FAIR      60  56  87 NW3       30.08S
$$

WIZ029-030-035-036-043>047-301700-
CENTRAL WISCONSIN

CITY           SKY/WX    TMP DP  RH WIND       PRES   REMARKS
WAUSAU         FAIR      65  53  65 W6        30.06S
MOSINEE        SUNNY     66  52  59 NW3       30.09S
MARSHFIELD     FAIR      67  54  63 NW6       30.08S
STEVENS POINT  FAIR      66  49  54 NW6       30.07S
WAUPACA        FAIR      68  56  64 N5        30.06F
WAUTOMA        NOT AVBL
WISC RAPIDS    FAIR      70  53  54 VRB5      30.08S
CAMP DOUGLAS   NOT AVBL
$$

WIZ011>013-019>022-031-037>040-048>050-301700-
NORTHEAST WISCONSIN

CITY           SKY/WX    TMP DP  RH WIND       PRES   REMARKS
ANTIGO         FAIR      64  52  65 NW7       30.08R
STURGEON BAY   FAIR      63  54  72 NW7       30.05S
GREEN BAY      FAIR      69  54  58 VRB5      30.05S
MANITOWOC      NOT AVBL
APPLETON       PTSUNNY   66  54  63 N8        30.06S
CLINTONVILLE   FAIR      66  50  55 NE3       30.06S
OSHKOSH        PTSUNNY   67  56  67 CALM      30.05S
$$

WIZ032>034-041-042-053>061-301700-
SOUTHWEST WISCONSIN

CITY           SKY/WX    TMP DP  RH WIND       PRES   REMARKS
LA CROSSE      FAIR      70  60  70 NW7       30.08S
SPARTA         CLOUDY    63  57  81 N3        30.10S
VIROQUA        FAIR      68  63  84 NW7       30.09S
BOSCOBEL       FAIR      74  60  61 NW6       30.07F
PRAIRIE DU CHI FAIR      72  56  57 NW8       30.08S
PLATTEVILLE    FAIR      70  60  70 NW5       30.09S
$$

WIZ056-057-062-063-064-067-068-301700-
SOUTH CENTRAL WISCONSIN

CITY           SKY/WX    TMP DP  RH WIND       PRES   REMARKS
BARABOO/DELLS  PTSUNNY   64  56  74 NE7       30.08R
LONE ROCK      NOT AVBL
WATERTOWN      CLOUDY    61  59  92 CALM      30.06S
MADISON        FAIR      70  59  68 VRB7      30.07R
MIDDLETON      FAIR      70  57  63 NW5       30.07R
MONROE         FAIR      68  59  73 NW6       30.07S
JANESVILLE     MOSUNNY   72  55  56 NW6       30.05S
$$

WIZ051-052-058>065-066-070>072-301700-
SOUTHEAST WISCONSIN

CITY           SKY/WX    TMP DP  RH WIND       PRES   REMARKS
MILWAUKEE      PTSUNNY   67  59  75 NE9       30.06R
WAUKESHA       NOT AVBL
MILWAUKEE/TIMM CLOUDY    64  57  77 N5        30.06R
RACINE         CLOUDY    67  59  75 NE9       30.07R
BURLINGTON     FAIR      66  58  75 NW5       30.05S
KENOSHA        PTSUNNY   69  60  73 VRB6      30.05S
FOND DU LAC    FAIR      68  56  65 NE8       30.06S
SHEBOYGAN      FAIR      66  55  67 N3        30.05S
WEST BEND      CLOUDY    63  54  72 NE6       30.05S
JUNEAU         CLOUDY    65  57  77 N3        30.07S
$$

LSZ147-162-301700-
LAKE SUPERIOR

STATION/POSITION TIME  TEMP    WIND        PRES    WAVE
                       AIR SEA DIR/SP/G            HT/PER
                 (UTC) (F)     (DEG/KT/KT) (MB)    (FT/S)
W MID LAKE BUOY  1450   47 42  220/  8/  8 1017.5F   0
PORT WING        1500   60     230/  4/  7 1017.9F
SAXON HARBOR     1500          200/  4/  8 1017.9F
$$

LMZ867-665-643>646-301700-
LAKE MICHIGAN

STATION/POSITION TIME  TEMP    WIND        PRES    WAVE
                       AIR SEA DIR/SP/G            HT/PER
                 (UTC) (F)     (DEG/KT/KT) (MB)    (FT/S)
N MID LAKE BUOY  1450   52 52   30/  4/  8 1016.7R   1/ 3
NORTHPORT PIER   1500   59     320/  6/  8 1017.3S
SISTER BAY       1440   62     360/  9/ 11   N/A
KEWAUNEE LAKESHO 1500   61     150/  3/  5 1017.9S
SHEBOYGAN LAKESH 1500   58      10/  9/  9 1017.8R
PORT WASHINGTON  1500   63      40/  8/ 10 1017.9R
ATWATER BUOY     1500   62     360/  8     1018.5R
MILWAUKEE LAKESH 1500   61      40/ 11/ 12   N/A
S MID LAKE BUOY  1450   60 60  310/  6/  8 1017.2R   1
KENOSHA   LAKESH 1500   63      40/  8/  9 1016.9S
$$

TC  - TEMPERATURE IN CELSIUS
VSB - VISIBILITY IN STATUTE MILES
WCI - WIND CHILL INDEX
HX  - HEAT INDEX



USA.gov is the U.S. government's official web portal to all federal, state and local government web resources and services.